| time (UTC) | temp F | wind direction | speed MPH | gust MPH | rain 1hr in | rain 24hr in | rain mn in | humidity % | barometer mb |
| 20260831233037 | 83 | 235 | 0.0 | 4.0 | 0.00 | 0.00 | 0.00 | 76 | 1017.2 |
| 20260831231537 | 84 | 236 | 1.0 | 3.0 | 0.00 | 0.00 | 0.00 | 74 | 1017.3 |
| 20260831230038 | 85 | 231 | 2.0 | 5.0 | 0.00 | 0.00 | 0.00 | 71 | 1017.3 |
| 20260831224538 | 86 | 223 | 1.0 | 6.0 | 0.00 | 0.00 | 0.00 | 70 | 1017.4 |
| 20260831223036 | 87 | 227 | 1.0 | 5.0 | 0.00 | 0.00 | 0.00 | 70 | 1017.7 |
| 20260831221535 | 88 | 232 | 2.0 | 5.0 | 0.00 | 0.00 | 0.00 | 67 | 1017.9 |
| 20260831220036 | 89 | 0 | 1.0 | 6.0 | 0.00 | 0.00 | 0.00 | 69 | 1017.9 |
| 20260831214539 | 90 | 225 | 3.0 | 6.0 | 0.00 | 0.00 | 0.00 | 66 | 1018.0 |
| 20260831213035 | 90 | 248 | 3.0 | 8.0 | 0.00 | 0.00 | 0.00 | 64 | 1018.1 |
| 20260831211539 | 90 | 213 | 4.0 | 11.0 | 0.00 | 0.00 | 0.00 | 64 | 1018.1 |
| 20260831210036 | 90 | 227 | 1.0 | 7.0 | 0.00 | 0.00 | 0.00 | 63 | 1018.3 |
| 20260831204543 | 91 | 256 | 2.0 | 8.0 | 0.00 | 0.00 | 0.00 | 64 | 1018.4 |
| 20260831203034 | 90 | 235 | 0.0 | 6.0 | 0.00 | 0.00 | 0.00 | 65 | 1018.5 |
| 20260831201537 | 89 | 222 | 1.0 | 8.0 | 0.00 | 0.00 | 0.00 | 65 | 1018.8 |
| 20260831200043 | 90 | 255 | 2.0 | 9.0 | 0.00 | 0.00 | 0.00 | 66 | 1018.9 |
| 20260831194535 | 90 | 234 | 3.0 | 9.0 | 0.00 | 0.00 | 0.00 | 64 | 1019.2 |
| 20260831193042 | 89 | 0 | 2.0 | 9.0 | 0.00 | 0.00 | 0.00 | 64 | 1019.3 |
| 20260831191536 | 89 | 242 | 2.0 | 8.0 | 0.00 | 0.00 | 0.00 | 68 | 1019.3 |
| 20260831190051 | 89 | 214 | 3.0 | 9.0 | 0.00 | 0.00 | 0.00 | 65 | 1019.5 |
| 20260831184539 | 88 | 0 | 2.0 | 7.0 | 0.00 | 0.00 | 0.00 | 66 | 1019.6 |
| 20260831183038 | 89 | 255 | 2.0 | 9.0 | 0.00 | 0.00 | 0.00 | 66 | 1019.8 |
| 20260831181535 | 89 | 227 | 4.0 | 13.0 | 0.00 | 0.00 | 0.00 | 67 | 1019.9 |
| 20260831180045 | 89 | 213 | 1.0 | 7.0 | 0.00 | 0.00 | 0.00 | 67 | 1019.8 |
| 20260831174543 | 90 | 234 | 3.0 | 9.0 | 0.00 | 0.00 | 0.00 | 67 | 1019.9 |
| 20260831173038 | 89 | 218 | 2.0 | 11.0 | 0.00 | 0.00 | 0.00 | 66 | 1020.1 |
| 20260831171536 | 89 | 205 | 1.0 | 10.0 | 0.00 | 0.00 | 0.00 | 70 | 1020.0 |
| 20260831170033 | 88 | 221 | 3.0 | 11.0 | 0.00 | 0.00 | 0.00 | 71 | 1020.1 |
| 20260831164553 | 88 | 231 | 3.0 | 10.0 | 0.00 | 0.00 | 0.00 | 71 | 1020.2 |
| 20260831163040 | 86 | 296 | 4.0 | 11.0 | 0.00 | 0.00 | 0.00 | 74 | 1020.4 |
| 20260831161537 | 87 | 279 | 4.0 | 10.0 | 0.00 | 0.00 | 0.00 | 69 | 1020.2 |
| 20260831160043 | 85 | 246 | 2.0 | 9.0 | 0.00 | 0.00 | 0.00 | 72 | 1020.2 |
| 20260831154604 | 85 | 209 | 1.0 | 9.0 | 0.00 | 0.00 | 0.00 | 76 | 1020.2 |
| 20260831153037 | 84 | 228 | 5.0 | 8.0 | 0.00 | 0.00 | 0.00 | 74 | 1020.2 |
| 20260831151535 | 85 | 209 | 3.0 | 10.0 | 0.00 | 0.00 | 0.00 | 74 | 1020.2 |
| 20260831150044 | 83 | 215 | 3.0 | 9.0 | 0.00 | 0.00 | 0.00 | 76 | 1020.2 |
| 20260831144538 | 81 | 232 | 5.0 | 12.0 | 0.00 | 0.00 | 0.00 | 76 | 1020.1 |
| 20260831143038 | 82 | 230 | 4.0 | 10.0 | 0.00 | 0.00 | 0.00 | 80 | 1020.1 |
| 20260831141537 | 79 | 220 | 1.0 | 5.0 | 0.00 | 0.00 | 0.00 | 83 | 1020.1 |
| 20260831140035 | 76 | 209 | 1.0 | 3.0 | 0.00 | 0.00 | 0.00 | 87 | 1020.1 |
| 20260831134540 | 75 | 0 | 0.0 | 3.0 | 0.00 | 0.00 | 0.00 | 89 | 1020.1 |
| 20260831133036 | 74 | 0 | 0.0 | 5.0 | 0.00 | 0.00 | 0.00 | 90 | 1020.1 |
| 20260831131537 | 73 | 0 | 1.0 | 4.0 | 0.00 | 0.00 | 0.00 | 91 | 1020.0 |
| 20260831130036 | 72 | 0 | 0.0 | 3.0 | 0.00 | 0.00 | 0.00 | 91 | 1019.9 |
| 20260831124539 | 72 | 207 | 0.0 | 3.0 | 0.00 | 0.00 | 0.00 | 92 | 1019.7 |
| 20260831123037 | 72 | 207 | 0.0 | 1.0 | 0.00 | 0.00 | 0.00 | 93 | 1019.7 |
| 20260831121533 | 71 | 0 | 0.0 | 1.0 | 0.00 | 0.00 | 0.00 | 94 | 1019.6 |
| 20260831120041 | 70 | 0 | 0.0 | 0.0 | 0.00 | 0.00 | 0.00 | 95 | 1019.6 |
| 20260831114538 | 69 | 0 | 0.0 | 0.0 | 0.00 | 0.00 | 0.00 | 94 | 1019.5 |
| 20260831113037 | 69 | 0 | 0.0 | 1.0 | 0.00 | 0.00 | 0.00 | 94 | 1019.4 |
| 20260831111549 | 69 | 0 | 0.0 | 0.0 | 0.00 | 0.00 | 0.00 | 94 | 1019.2 |
| 20260831110045 | 69 | 0 | 0.0 | 1.0 | 0.00 | 0.00 | 0.00 | 94 | 1019.1 |
| 20260831104550 | 70 | 0 | 0.0 | 1.0 | 0.00 | 0.00 | 0.00 | 94 | 1019.1 |
| 20260831103039 | 70 | 0 | 0.0 | 0.0 | 0.00 | 0.00 | 0.00 | 94 | 1018.9 |
| 20260831101542 | 70 | 0 | 0.0 | 0.0 | 0.00 | 0.00 | 0.00 | 94 | 1018.8 |
| 20260831100041 | 70 | 0 | 0.0 | 0.0 | 0.00 | 0.00 | 0.00 | 94 | 1018.7 |
| 20260831094537 | 71 | 0 | 0.0 | 1.0 | 0.00 | 0.00 | 0.00 | 93 | 1018.6 |
| 20260831093046 | 71 | 0 | 0.0 | 0.0 | 0.00 | 0.00 | 0.00 | 93 | 1018.6 |
| 20260831091535 | 71 | 0 | 0.0 | 0.0 | 0.00 | 0.00 | 0.00 | 93 | 1018.5 |
| 20260831090040 | 71 | 0 | 0.0 | 0.0 | 0.00 | 0.00 | 0.00 | 93 | 1018.7 |
| 20260831084536 | 71 | 0 | 0.0 | 0.0 | 0.00 | 0.00 | 0.00 | 93 | 1018.5 |
| 20260831083036 | 71 | 0 | 0.0 | 0.0 | 0.00 | 0.00 | 0.00 | 93 | 1018.4 |
| 20260831081539 | 71 | 0 | 0.0 | 1.0 | 0.00 | 0.00 | 0.00 | 93 | 1018.2 |
| 20260831080041 | 71 | 0 | 0.0 | 1.0 | 0.00 | 0.00 | 0.00 | 93 | 1017.9 |
| 20260831074536 | 71 | 0 | 0.0 | 0.0 | 0.00 | 0.00 | 0.00 | 93 | 1018.0 |
| 20260831073037 | 71 | 0 | 0.0 | 1.0 | 0.00 | 0.00 | 0.00 | 92 | 1018.1 |
| 20260831071535 | 71 | 0 | 0.0 | 1.0 | 0.00 | 0.00 | 0.00 | 93 | 1018.3 |
| 20260831070039 | 71 | 0 | 0.0 | 1.0 | 0.00 | 0.00 | 0.00 | 93 | 1018.5 |
| 20260831064537 | 72 | 0 | 0.0 | 0.0 | 0.00 | 0.00 | 0.00 | 92 | 1018.5 |
| 20260831063035 | 71 | 0 | 0.0 | 0.0 | 0.00 | 0.00 | 0.00 | 91 | 1018.9 |
| 20260831061538 | 71 | 0 | 0.0 | 1.0 | 0.00 | 0.00 | 0.00 | 91 | 1019.0 |
| 20260831060044 | 71 | 0 | 0.0 | 0.0 | 0.00 | 0.00 | 0.00 | 92 | 1018.9 |
| 20260831054539 | 70 | 0 | 0.0 | 0.0 | 0.00 | 0.00 | 0.00 | 92 | 1019.0 |
| 20260831053036 | 70 | 0 | 0.0 | 0.0 | 0.00 | 0.00 | 0.00 | 92 | 1019.1 |
| 20260831051538 | 70 | 0 | 0.0 | 0.0 | 0.00 | 0.00 | 0.00 | 92 | 1019.0 |
| 20260831050037 | 70 | 0 | 0.0 | 0.0 | 0.00 | 0.00 | 0.00 | 91 | 1018.9 |
| 20260831044536 | 71 | 0 | 0.0 | 0.0 | 0.00 | 0.00 | 0.00 | 90 | 1018.8 |
| 20260831043036 | 71 | 0 | 0.0 | 1.0 | 0.00 | 0.00 | 0.00 | 91 | 1018.9 |
| 20260831041546 | 71 | 0 | 0.0 | 0.0 | 0.00 | 0.00 | 0.00 | 90 | 1018.9 |
| 20260831040037 | 71 | 0 | 0.0 | 0.0 | 0.00 | 0.00 | 0.00 | 89 | 1019.1 |
| 20260831034538 | 71 | 0 | 0.0 | 0.0 | 0.00 | 0.00 | 0.00 | 89 | 1019.1 |
| 20260831033041 | 72 | 0 | 0.0 | 0.0 | 0.00 | 0.00 | 0.00 | 88 | 1019.1 |
| 20260831031540 | 72 | 0 | 0.0 | 0.0 | 0.00 | 0.00 | 0.00 | 88 | 1019.0 |
| 20260831030037 | 73 | 0 | 0.0 | 0.0 | 0.00 | 0.00 | 0.00 | 87 | 1018.9 |
| 20260831024541 | 72 | 0 | 0.0 | 0.0 | 0.00 | 0.00 | 0.00 | 88 | 1018.8 |
| 20260831023037 | 73 | 0 | 0.0 | 0.0 | 0.00 | 0.00 | 0.00 | 86 | 1018.9 |
| 20260831021537 | 74 | 0 | 0.0 | 0.0 | 0.00 | 0.00 | 0.00 | 86 | 1019.0 |
| 20260831020038 | 74 | 0 | 0.0 | 0.0 | 0.00 | 0.00 | 0.00 | 86 | 1019.0 |
| 20260831014534 | 74 | 0 | 0.0 | 0.0 | 0.00 | 0.00 | 0.00 | 86 | 1018.8 |
| 20260831013039 | 74 | 0 | 0.0 | 0.0 | 0.00 | 0.00 | 0.00 | 85 | 1018.7 |
| 20260831011539 | 75 | 0 | 0.0 | 0.0 | 0.00 | 0.00 | 0.00 | 85 | 1018.7 |
| 20260831010043 | 76 | 0 | 0.0 | 0.0 | 0.00 | 0.00 | 0.00 | 84 | 1018.6 |
| 20260831004536 | 77 | 0 | 0.0 | 0.0 | 0.00 | 0.00 | 0.00 | 83 | 1018.5 |
| 20260831003037 | 77 | 0 | 0.0 | 0.0 | 0.00 | 0.00 | 0.00 | 84 | 1018.3 |
| 20260831001538 | 77 | 0 | 0.0 | 0.0 | 0.00 | 0.00 | 0.00 | 84 | 1018.2 |
| 20260831000037 | 79 | 0 | 0.0 | 1.0 | 0.00 | 0.00 | 0.00 | 83 | 1018.1 |
| 20260830234551 | 80 | 0 | 0.0 | 0.0 | 0.00 | 0.00 | 0.00 | 81 | 1018.2 |